Weather History for Luxor, Egypt

Change the Weather History Date:

Sunday, July 14, 2013

  Actual Average Record
Temperature  
Mean Temperature 92 °F -  
Max Temperature 104 °F 103 °F 111 °F (1997)
Min Temperature 80 °F 77 °F 73 °F (1998)
Cooling Degree Days 27    
Growing Degree Days 42 (Base 50)    
Moisture  
Dew Point 62 °F    
Average Humidity 35    
Maximum Humidity 54    
Minimum Humidity 18    
Precipitation  
Precipitation 0.00 in 0.00 in - ()
Sea Level Pressure  
Sea Level Pressure 29.65 in    
Wind  
Wind Speed 3 mph ()    
Max Wind Speed 9 mph    
Max Gust Speed -    
Visibility 6.0 miles    
Events      
Averages and records for this station are not official NWS values.
T = Trace of Precipitation, MM = Missing Value Source: Averaged Metar Reports

Daily Weather History Graph

Daily Weather History Graph

Search for Another Location

Airport:

Trip Planner

Search our weather history database for the weather conditions in past years. The results will help you decide how hot, cold, wet, or windy it might be!

Date:

Astronomy

Jul. 14, 2013 Rise Set
Actual Time 5:06 AM EET 6:42 PM EET
Civil Twilight 4:41 AM EET 7:08 PM EET
Nautical Twilight 4:10 AM EET 7:39 PM EET
Astronomical Twilight 3:38 AM EET 8:10 PM EET
Moon 10:22 AM EET (7/14) 10:27 PM EET (7/14)
Length of Visible Light 14h 27m
Length of Day
13h 36m
Waxing Crescent, 32% of the Moon is Illuminated
Jul 14
Waxing Crescent
Jul 16
First Quarter
Jul 22
Full
Jul 29
Last Quarter
Aug 6
New

Hourly Weather History & Observations

Time (EET) Temp. Heat Index Dew Point Humidity Pressure Visibility Wind Dir Wind Speed Gust Speed Precip Events Conditions
12:00 AM 87.8 °F 87.6 °F 60.8 °F 40% 29.65 in - Calm Calm - N/A   Clear
1:00 AM 86.0 °F 86.1 °F 60.8 °F 43% 29.65 in - Calm Calm - N/A   Clear
2:00 AM 85 °F - 60 °F 32% 29.65 in 6 mi SE 8.9 mph - -  
2:00 AM 86.0 °F 85.4 °F 59.0 °F 40% 29.65 in - SE 4.6 mph - N/A   Clear
3:00 AM 84.2 °F 83.8 °F 59.0 °F 42% 29.65 in - SSE 3.5 mph - N/A   Clear
4:00 AM 82.4 °F 82.5 °F 59.0 °F 45% 29.65 in - SSE 2.3 mph - N/A   Clear
5:00 AM 81 °F - 61 °F 41% 29.67 in 6 mi SSE 6.7 mph - -  
5:00 AM 80.6 °F 81.5 °F 60.8 °F 51% 29.68 in - SSE 3.5 mph - N/A   Clear
6:00 AM 80.6 °F 81.8 °F 62.6 °F 54% 29.68 in - SSE 3.5 mph - N/A   Clear
7:00 AM 84.2 °F 85.6 °F 64.4 °F 51% 29.68 in - South 2.3 mph - N/A   Clear
8:00 AM 89 °F - 66 °F 36% 29.68 in 6 mi Calm Calm - -  
8:00 AM 89.6 °F 92.2 °F 66.2 °F 46% 29.68 in - Calm Calm - N/A   Clear
9:00 AM 91.4 °F 93.2 °F 64.4 °F 41% 29.68 in - WNW 3.5 mph - N/A   Clear
10:00 AM 93.2 °F 94.9 °F 64.4 °F 38% 29.68 in - West 4.6 mph - N/A   Clear
11:00 AM 97 °F - 62 °F 22% 29.66 in 6 mi WSW 8.9 mph - -  
11:00 AM 96.8 °F 98.0 °F 62.6 °F 32% 29.68 in - WSW 5.8 mph - N/A   Clear
12:00 PM 98.6 °F 100.0 °F 62.6 °F 30% 29.65 in - NW 4.6 mph - N/A   Clear
1:00 PM 100.4 °F 102.4 °F 62.6 °F 29% 29.65 in - North 4.6 mph - N/A   Clear
2:00 PM 103 °F - 63 °F 18% 29.62 in 6 mi West 3.5 mph - -  
2:00 PM 104.0 °F 106.6 °F 62.6 °F 26% 29.65 in - West 3.5 mph - N/A   Clear
3:00 PM 104.0 °F 106.6 °F 62.6 °F 26% 29.62 in - West 2.3 mph - N/A   Clear
4:00 PM 104.0 °F 106.6 °F 62.6 °F 26% 29.62 in - WNW 6.9 mph - N/A   Clear
5:00 PM 103 °F - 63 °F 19% 29.60 in 6 mi WNW 6.9 mph - -  
5:00 PM 104.0 °F 106.6 °F 62.6 °F 26% 29.62 in - WNW 6.9 mph - N/A   Clear
6:00 PM 98.6 °F 101.0 °F 64.4 °F 32% 29.62 in - WNW 6.9 mph - N/A   Clear
7:00 PM 96.8 °F 98.0 °F 62.6 °F 32% 29.62 in - West 4.6 mph - N/A   Clear
8:00 PM 92 °F - 63 °F 28% 29.64 in 6 mi WSW 6.9 mph - -  
8:00 PM 93.2 °F 94.1 °F 62.6 °F 36% 29.65 in - WSW 6.9 mph - N/A   Clear
9:00 PM 91.4 °F - 44.6 °F 20% 29.65 in - SW 4.6 mph - N/A   Clear
10:00 PM 89.6 °F 90.1 °F 62.6 °F 40% 29.65 in - SW 4.6 mph - N/A   Clear
11:00 PM 88 °F - 61 °F 30% 29.75 in 6 mi SW 4.5 mph - -  
11:00 PM 87.8 °F 87.6 °F 60.8 °F 40% 29.68 in - SW 2.3 mph - N/A   Clear